Temperature
31 32 33 33 33 33 33 32 32 32 33 33 32 33 32 31 31 30 28 27 26 25 24 24 23 23 22 22 21 21 20 20 19 19 19 19 18 18 18 17 17 17 17 17
30 31 32 32 33 33 33 33 33 33 33 33 33 32 31 31 30 29 28 27 26 25 24 23 23 22 22 21 21 21 20 20 19 19 18 18 18 18 17 17 17 17 17 16
28 30 31 31 32 33 33 33 33 32 32 32 32 31 31 30 29 29 28 27 26 25 24 23 22 22 22 21 21 20 20 19 19 19 18 18 18 18 17 17 17 17 17 17
28 28 28 31 33 33 33 33 33 33 33 32 31 31 30 30 29 28 27 27 26 24 24 23 22 22 22 21 21 20 20 19 19 18 18 18 17 17 17 17 17 17 17 17
27 27 28 31 32 33 32 31 33 32 32 32 31 30 30 29 28 27 27 26 25 24 24 23 22 22 21 21 20 20 20 19 19 19 18 18 17 17 17 17 17 17 17 16
26 27 27 30 32 33 32 30 32 32 31 31 31 30 29 28 27 27 26 25 25 24 23 22 22 22 21 21 20 20 20 19 19 18 18 18 18 18 17 17 17 16 16 16
25 26 28 31 32 32 29 29 30 31 30 29 29 29 28 27 26 26 25 24 24 23 23 22 22 21 21 20 20 20 20 19 19 18 18 18 18 18 17 17 16 16 16 16
25 26 27 30 31 29 28 29 29 29 29 29 28 28 27 26 25 25 24 24 23 23 22 21 21 21 20 20 20 20 19 19 19 18 18 18 17 17 17 17 16 16 16 16
26 27 27 28 28 27 27 28 28 28 28 27 27 27 26 25 24 24 23 23 22 22 21 21 21 21 20 20 20 19 19 19 18 18 18 17 17 17 17 16 16 16 16 15
26 26 27 26 26 26 26 26 27 27 27 27 26 26 25 24 24 23 22 22 22 21 21 20 20 20 20 20 19 19 19 18 18 18 17 17 17 17 16 16 16 16 15 15
25 25 26 26 26 25 26 26 26 26 26 26 25 25 24 23 23 22 21 21 21 20 20 20 20 20 19 19 19 19 18 18 18 18 17 17 17 16 16 16 16 16 16 15
24 24 24 24 24 24 24 25 25 25 25 25 24 24 23 23 22 21 21 20 20 20 20 20 20 19 19 19 19 18 18 18 18 17 17 17 17 16 16 16 16 16 16 16
23 24 23 23 23 23 24 24 24 24 24 24 23 23 22 22 21 21 20 20 20 20 20 19 19 19 19 18 18 18 18 17 17 17 17 16 16 16 16 16 16 16 16 15
22 23 23 22 22 23 23 23 23 23 23 23 22 22 21 21 20 20 20 20 19 19 19 19 19 18 18 18 18 18 17 17 17 17 17 16 16 16 16 16 16 16 16 15
21 22 22 22 22 22 22 22 22 22 22 22 21 21 21 20 20 20 19 19 19 19 19 18 18 18 18 18 17 17 17 17 17 17 17 16 16 16 16 16 16 16 16 15
21 21 21 21 21 21 21 22 22 22 21 21 21 20 20 20 19 19 19 19 19 18 18 18 18 18 17 17 17 17 17 17 17 17 17 16 16 16 16 16 16 15 15 15
20 20 20 20 20 21 21 21 21 21 21 20 20 20 19 19 19 18 18 18 18 18 18 18 18 17 17 17 16 16 17 17 17 16 16 16 16 16 16 16 16 15 15 15
19 19 19 20 20 20 20 20 20 19 19 19 19 19 19 18 18 18 17 17 17 17 17 17 17 17 17 16 16 16 16 16 16 16 16 16 16 16 16 16 16 15 15 15
18 19 19 19 19 19 19 19 19 18 18 18 18 18 18 17 17 17 17 17 17 17 17 17 17 16 16 16 16 16 16 16 16 16 16 16 16 16 16 15 15 15 15 15
18 18 18 18 18 18 18 18 18 18 18 18 17 17 17 17 17 17 16 16 16 16 16 16 16 16 16 16 16 15 15 16 16 16 16 15 15 15 15 15 15 15 14 14
17 17 17 17 17 17 17 17 17 17 17 17 17 16 16 16 16 16 16 16 16 16 16 16 15 15 15 15 15 15 15 15 15 15 15 15 15 15 15 15 15 14 14 14
16 16 16 16 16 16 16 16 16 16 16 16 16 16 16 15 15 15 15 15 15 15 15 15 15 15 15 15 15 15 15 15 15 15 15 15 15 15 15 14 14 14 14 13
15 15 15 15 15 16 16 16 16 16 16 16 16 15 15 15 15 15 15 15 15 15 15 14 15 15 15 14 14 14 14 14 14 14 14 14 14 14 14 14 13 13 13 13
14 14 14 15 15 15 15 15 15 15 15 15 15 15 15 15 15 15 15 15 15 15 14 14 14 14 14 14 14 14 14 14 14 14 14 14 14 14 13 13 13 13 12 12
14 14 14 14 15 15 15 15 15 15 15 15 14 14 14 14 14 14 14 14 14 14 14 14 14 14 14 14 13 13 13 13 13 13 13 13 13 13 13 13 12 12 12 12
14 14 14 14 14 14 14 14 14 14 14 14 14 14 14 14 14 14 14 13 13 13 13 13 13 13 13 13 13 13 13 13 13 13 13 13 12 12 12 12 12 12 11 11
14 14 14 14 14 14 14 14 14 14 14 14 13 13 13 13 13 13 13 13 13 13 13 13 13 13 13 13 13 13 12 12 12 12 12 12 12 12 12 11 11 11 11 11
Wind_Speed
17 16 14 15 17 17 17 15 14 12 9 7 7 7 9 9 9 11 12 11 10 9 8 8 8 7 7 7 8 8 9 8 8 7 6 5 5 4 4 3 4 3 3 2
17 19 17 16 17 17 17 16 16 14 8 3 5 7 8 8 8 9 10 10 11 10 9 9 9 8 8 7 8 8 8 8 7 7 7 6 5 4 4 3 3 3 3 2
16 18 18 19 17 17 16 15 15 13 7 3 4 5 7 8 7 8 9 10 10 9 9 8 8 8 8 8 8 8 8 8 8 8 7 6 6 5 4 4 3 3 3 3
14 15 19 16 15 15 15 13 11 10 7 5 7 6 6 7 6 6 7 8 8 9 9 8 8 8 7 8 8 8 7 8 8 8 8 6 6 5 4 4 3 3 3 3
13 16 17 15 14 14 13 11 10 9 7 5 6 5 6 5 6 5 6 6 6 8 8 8 8 9 8 8 8 8 8 8 8 8 8 7 7 6 5 4 4 4 3 3
12 15 16 13 12 10 10 10 8 7 4 4 4 5 4 3 5 6 6 5 5 7 7 7 7 7 8 8 8 8 7 7 7 7 7 7 7 6 5 4 4 4 4 4
16 15 13 9 8 9 12 6 2 4 4 4 3 2 2 4 6 6 6 6 6 6 6 6 6 6 7 7 7 7 7 6 6 7 7 7 7 6 6 5 5 4 4 4
15 15 11 6 6 6 1 2 1 0 2 2 1 2 3 4 5 6 6 6 6 6 6 5 6 6 6 6 6 6 6 6 6 6 7 7 7 6 6 6 6 5 4 4
9 8 1 3 2 4 4 3 1 0 1 2 2 3 4 5 5 5 5 5 5 6 6 6 5 5 6 5 5 6 6 6 6 6 5 6 7 7 7 7 7 6 5 5
5 4 3 1 1 3 3 3 2 1 2 2 2 3 3 4 4 5 4 5 5 6 6 6 5 4 4 5 5 6 6 6 6 6 6 6 6 7 7 7 6 5 5 5
7 4 2 3 2 2 2 2 3 2 2 2 2 3 3 3 4 4 4 4 5 5 5 5 6 5 5 5 6 6 6 6 6 6 6 5 5 3 5 3 4 5 4 4
5 2 4 3 2 2 2 3 3 3 2 1 1 2 3 4 3 3 4 4 4 5 5 5 6 6 5 6 6 6 6 6 6 6 6 6 5 3 0 2 5 5 4 3
3 2 2 2 2 3 3 4 3 3 2 2 1 2 2 3 3 3 4 5 5 5 5 5 6 6 6 6 6 7 6 6 6 6 6 6 6 6 5 2 2 3 4 5
4 2 3 2 3 4 4 4 3 3 2 2 2 2 2 2 3 3 3 4 5 4 5 5 6 6 6 7 6 6 7 7 6 6 6 7 7 6 6 6 5 4 4 6
5 4 4 3 4 3 4 4 3 3 3 2 3 3 3 3 3 2 2 3 4 5 5 5 5 5 5 6 7 7 7 6 6 6 6 7 6 7 6 7 6 6 5 5
6 5 4 4 4 4 4 4 4 3 2 1 2 2 3 2 2 2 2 2 3 5 5 5 5 5 6 6 6 6 5 7 7 6 6 6 7 7 6 6 6 5 6 6
7 5 4 5 4 4 4 4 3 2 1 1 2 2 2 2 2 2 2 1 2 3 4 4 4 5 6 6 6 6 6 6 8 7 6 6 6 6 5 6 6 6 5 7
7 7 6 5 5 4 4 3 3 3 3 2 2 2 2 2 2 2 2 1 2 2 3 3 3 4 5 5 5 5 5 5 6 6 5 5 5 5 5 5 5 5 5 7
8 8 7 6 6 5 5 4 3 4 3 3 3 2 2 2 1 1 1 2 3 3 3 3 4 5 4 4 5 4 5 5 5 5 5 5 5 5 4 4 4 4 4 5
6 7 6 6 6 5 5 3 3 3 3 3 2 2 2 2 2 1 1 3 3 2 2 3 3 3 4 4 5 5 4 5 5 5 4 5 5 4 4 4 3 3 3 4
4 5 4 5 4 4 4 3 3 3 3 2 2 2 2 2 2 2 2 3 1 1 2 3 3 3 3 3 5 5 4 3 3 4 4 4 4 3 3 3 2 2 3 3
1 2 2 2 1 1 2 2 1 1 2 2 2 2 2 2 2 3 3 3 2 1 2 3 3 2 2 3 4 4 4 4 3 3 3 3 3 3 3 2 2 2 3 3
1 2 2 2 2 1 1 1 1 0 0 0 1 1 2 2 2 3 2 1 1 1 2 2 1 1 2 3 3 3 3 3 3 2 2 2 2 2 2 2 2 3 3 2
2 2 2 1 1 1 1 1 2 1 1 0 0 0 1 1 1 1 0 1 2 1 1 1 3 4 4 3 3 3 2 2 2 2 2 2 2 2 2 2 3 2 2 3
2 1 1 1 1 0 2 1 1 1 1 1 0 0 0 0 0 1 1 1 1 1 1 2 4 4 4 3 3 2 2 2 2 2 2 1 1 2 2 2 2 2 2 2
1 1 1 2 1 1 1 1 1 1 1 1 1 2 1 1 1 1 0 1 1 1 1 1 2 3 3 2 1 2 2 2 2 2 2 3 3 3 2 2 3 2 2 2
1 0 1 1 1 1 1 1 1 1 1 2 2 3 3 2 2 1 1 1 1 1 1 1 1 1 1 1 1 1 2 2 2 2 2 3 3 3 3 3 2 3 3 3
Wind_Direction
252 254 239 221 222 226 229 238 247 250 236 198 176 162 146 147 150 149 149 150 149 147 145 151 153 156 161 162 159 157 157 159 158 157 153 153 153 149 143 146 145 132 125 116
249 253 251 240 226 229 232 234 244 252 256 195 162 154 144 149 154 152 153 156 154 155 156 161 163 165 165 165 158 158 161 160 156 159 160 160 158 150 146 147 133 131 127 116
246 243 247 243 234 232 233 237 243 246 235 195 157 165 148 148 156 159 161 159 157 159 162 165 164 163 165 163 160 163 164 163 164 167 167 168 167 157 158 153 148 143 136 121
245 247 242 243 241 239 234 235 241 248 238 198 176 174 157 156 157 159 155 158 158 162 164 163 163 162 163 165 165 167 171 173 171 170 169 165 162 163 161 155 156 158 149 143
240 241 242 244 237 239 235 230 237 245 240 214 184 167 170 162 160 161 158 151 157 164 164 160 161 162 165 170 169 172 178 178 174 170 169 171 170 169 164 163 170 169 157 152
237 240 241 241 235 230 230 228 232 236 230 212 185 201 189 140 146 146 138 141 148 156 155 154 157 161 169 176 177 178 177 177 171 172 175 175 172 170 168 171 176 173 166 164
237 243 245 248 234 221 226 222 235 226 188 210 210 221 130 128 129 132 133 140 143 144 148 151 157 163 173 178 181 177 171 169 172 174 176 174 169 172 174 181 183 177 166 167
229 239 242 261 230 224 198 61 67 258 208 221 165 125 119 120 127 136 141 143 145 140 145 148 159 167 175 181 176 167 165 168 174 176 188 180 171 178 179 183 184 184 182 187
221 228 282 358 40 53 49 38 39 250 200 212 183 151 140 135 137 143 144 146 151 150 151 157 163 171 180 179 171 169 172 176 175 179 187 176 178 185 188 194 200 195 188 192
217 213 242 333 23 49 35 8 324 267 197 201 165 151 141 143 146 148 153 155 158 161 165 165 166 171 172 165 165 168 173 174 175 179 189 188 191 196 202 203 204 198 194 197
221 215 248 283 11 20 354 335 310 287 224 213 195 169 161 152 147 153 161 165 169 168 170 168 163 168 168 162 165 174 181 182 182 190 194 195 198 216 215 212 202 206 207 198
226 212 234 258 322 340 321 295 291 278 252 236 222 177 167 160 156 158 163 163 179 179 179 177 174 175 170 167 173 181 190 191 190 193 193 195 194 195 95 159 158 156 145 164
266 264 237 255 283 289 278 271 270 270 245 206 196 158 160 154 157 163 173 178 191 190 190 184 179 178 176 174 183 193 201 200 198 198 199 199 203 199 194 182 143 155 165 160
298 287 259 273 270 274 274 269 265 251 241 204 163 167 172 169 175 188 196 196 194 195 198 193 187 184 180 182 190 199 208 203 201 202 204 206 208 209 203 197 196 197 197 184
279 254 239 248 262 272 270 259 251 246 221 183 155 163 170 176 190 202 213 215 195 198 199 198 193 186 181 188 195 202 211 208 205 209 210 210 207 207 209 205 202 195 175 179
266 256 239 241 246 252 253 251 249 247 232 173 170 171 177 178 191 209 210 213 204 210 202 197 193 189 185 195 202 208 213 212 211 215 215 215 213 210 212 209 207 195 186 181
259 248 238 244 253 259 259 269 269 263 245 225 200 191 196 181 186 195 201 230 227 210 203 201 198 188 188 198 209 218 219 212 211 222 222 221 218 215 212 212 209 202 193 178
264 263 252 253 255 267 265 271 277 273 253 241 225 219 223 209 213 201 215 228 223 210 199 185 180 187 196 204 212 225 227 222 217 219 222 223 223 223 218 214 212 205 181 174
243 248 247 252 260 265 264 259 253 252 248 234 229 233 234 246 233 224 227 243 242 220 193 175 188 204 210 209 220 229 229 220 222 220 218 205 210 224 221 212 206 199 182 172
246 250 248 251 256 262 263 264 268 256 247 234 216 225 243 250 257 237 230 254 258 242 167 166 186 205 215 204 218 231 235 229 225 221 215 212 211 215 222 219 210 197 185 183
250 248 244 250 257 267 273 268 262 252 250 227 208 220 227 236 237 229 237 258 263 208 185 183 208 213 216 219 226 235 232 222 219 221 222 215 213 211 210 209 202 198 192 191
300 301 292 281 271 282 286 293 306 271 250 228 216 212 208 214 226 227 223 237 245 235 226 220 217 207 219 231 233 236 238 228 220 215 214 209 209 206 208 198 195 193 188 181
8 357 350 346 342 332 316 318 334 302 328 134 201 214 224 245 248 239 242 234 216 229 254 265 230 174 205 244 254 244 240 225 217 215 209 201 204 195 186 194 193 185 176 176
30 4 356 345 350 2 357 15 25 27 44 69 166 224 236 223 245 283 206 118 105 127 291 149 165 184 218 245 253 237 228 217 216 213 205 193 194 191 181 180 183 171 158 159
353 343 356 318 267 77 75 68 83 109 130 120 110 50 262 254 317 21 63 72 113 164 211 181 188 209 228 246 230 215 203 195 195 185 161 154 165 154 139 146 157 152 146 141
319 312 355 15 31 37 121 111 70 53 49 39 15 2 356 20 43 32 327 265 255 227 223 184 181 208 240 239 198 182 184 175 170 178 164 142 138 134 132 138 136 139 134 126
301 335 10 15 60 52 60 75 72 48 41 46 35 21 10 8 10 5 339 288 255 240 233 196 186 179 171 148 138 136 138 141 145 141 138 132 129 122 120 125 125 122 120 123
Height
1469 1462 1461 1465 1469 1470 1475 1478 1485 1482 1479 1478 1478 1479 1484 1489 1493 1498 1502 1507 1510 1513 1516 1519 1522 1524 1526 1528 1530 1531 1533 1534 1535 1536 1537 1538 1539 1540 1541 1541 1542 1542 1542 1542
1474 1465 1462 1465 1464 1466 1469 1471 1474 1475 1476 1472 1475 1479 1484 1489 1493 1497 1502 1506 1509 1513 1515 1518 1520 1522 1524 1526 1528 1529 1531 1532 1534 1535 1536 1537 1538 1539 1540 1540 1541 1541 1541 1542
1481 1470 1468 1474 1464 1464 1467 1466 1469 1476 1475 1474 1477 1480 1484 1489 1493 1497 1501 1505 1508 1511 1514 1516 1518 1520 1522 1524 1526 1528 1529 1531 1532 1534 1535 1536 1537 1538 1538 1539 1540 1540 1540 1541
1481 1480 1492 1468 1454 1456 1461 1464 1464 1467 1469 1473 1477 1481 1485 1489 1493 1496 1500 1503 1507 1510 1512 1515 1516 1518 1520 1522 1524 1525 1527 1529 1530 1532 1533 1534 1535 1536 1537 1538 1538 1539 1539 1539
1483 1485 1479 1463 1455 1456 1462 1466 1464 1467 1469 1472 1477 1481 1485 1489 1492 1495 1499 1502 1505 1508 1511 1513 1514 1516 1518 1520 1522 1523 1525 1527 1528 1529 1531 1532 1533 1534 1535 1536 1537 1537 1538 1538
1482 1487 1485 1466 1452 1453 1460 1470 1465 1467 1470 1473 1476 1482 1485 1488 1491 1494 1498 1501 1504 1507 1509 1511 1513 1514 1516 1518 1520 1521 1523 1524 1526 1527 1529 1530 1531 1532 1534 1535 1535 1536 1536 1537
1483 1482 1470 1455 1453 1456 1473 1473 1466 1468 1471 1475 1477 1481 1486 1488 1490 1494 1497 1500 1503 1505 1507 1509 1511 1512 1514 1516 1517 1519 1521 1522 1524 1525 1526 1527 1529 1530 1532 1533 1534 1534 1535 1535
1479 1483 1476 1455 1454 1461 1466 1466 1467 1469 1472 1475 1478 1481 1484 1487 1490 1493 1496 1499 1501 1503 1505 1507 1508 1510 1511 1513 1515 1517 1518 1519 1521 1522 1524 1526 1527 1528 1529 1531 1532 1533 1533 1534
1467 1469 1463 1461 1461 1464 1466 1468 1469 1471 1473 1476 1479 1482 1485 1488 1490 1493 1496 1498 1500 1502 1504 1505 1506 1507 1509 1510 1512 1513 1515 1517 1518 1520 1521 1523 1524 1525 1527 1528 1529 1530 1531 1532
1462 1463 1463 1464 1465 1467 1468 1470 1471 1473 1475 1476 1479 1482 1484 1487 1490 1492 1494 1496 1498 1500 1501 1503 1504 1505 1506 1507 1509 1510 1512 1513 1515 1516 1518 1520 1521 1522 1524 1525 1526 1527 1528 1529
1461 1463 1465 1466 1467 1468 1469 1471 1472 1474 1475 1476 1479 1481 1484 1486 1488 1490 1492 1495 1496 1498 1499 1500 1501 1502 1503 1504 1506 1507 1509 1510 1512 1513 1514 1516 1517 1519 1520 1521 1523 1524 1525 1526
1463 1464 1466 1468 1469 1470 1471 1472 1473 1474 1474 1476 1478 1480 1482 1485 1487 1489 1491 1492 1494 1495 1496 1497 1498 1499 1500 1501 1502 1504 1505 1507 1508 1510 1511 1512 1514 1515 1516 1518 1519 1520 1522 1523
1463 1463 1465 1467 1469 1471 1472 1472 1473 1474 1474 1476 1478 1480 1482 1483 1485 1487 1488 1490 1491 1492 1493 1494 1495 1496 1496 1498 1499 1500 1502 1503 1505 1506 1508 1509 1510 1511 1513 1514 1516 1516 1518 1519
1463 1463 1465 1468 1469 1471 1471 1472 1472 1473 1474 1475 1477 1479 1480 1482 1483 1485 1486 1487 1488 1489 1490 1490 1491 1492 1493 1494 1496 1497 1499 1500 1501 1502 1504 1505 1507 1508 1509 1510 1511 1512 1513 1515
1464 1464 1466 1468 1469 1470 1471 1471 1471 1472 1473 1473 1475 1477 1479 1480 1481 1482 1483 1484 1484 1485 1486 1487 1488 1488 1490 1491 1492 1493 1495 1496 1497 1499 1500 1502 1503 1505 1506 1507 1508 1508 1509 1510
1464 1464 1465 1466 1468 1469 1470 1470 1470 1470 1471 1471 1474 1476 1477 1478 1479 1480 1480 1481 1481 1481 1482 1483 1484 1485 1486 1487 1489 1490 1491 1493 1494 1495 1497 1498 1500 1501 1502 1503 1504 1505 1505 1506
1463 1463 1464 1465 1466 1467 1468 1468 1469 1469 1471 1472 1473 1474 1476 1476 1477 1477 1478 1478 1478 1478 1479 1480 1481 1482 1483 1484 1485 1486 1487 1488 1489 1491 1493 1494 1496 1497 1498 1499 1500 1501 1501 1502
1462 1463 1464 1465 1465 1466 1466 1467 1468 1469 1470 1471 1472 1473 1473 1474 1474 1475 1475 1475 1475 1475 1476 1477 1478 1479 1480 1481 1482 1483 1484 1485 1486 1487 1488 1490 1492 1493 1494 1495 1496 1497 1498 1499
1461 1461 1462 1463 1464 1464 1465 1465 1466 1467 1468 1469 1470 1471 1471 1472 1472 1472 1472 1472 1472 1472 1473 1474 1475 1476 1476 1477 1479 1480 1481 1481 1482 1483 1484 1486 1487 1489 1490 1491 1492 1494 1495 1495
1458 1459 1460 1460 1461 1461 1462 1463 1463 1464 1465 1465 1466 1467 1468 1469 1469 1469 1470 1470 1470 1470 1470 1471 1472 1473 1474 1474 1476 1477 1478 1479 1479 1480 1481 1482 1483 1485 1486 1488 1489 1490 1490 1491
1456 1457 1457 1458 1458 1459 1460 1460 1460 1461 1461 1462 1463 1465 1465 1466 1467 1467 1468 1468 1468 1468 1469 1469 1470 1471 1471 1472 1473 1474 1475 1475 1476 1477 1478 1478 1480 1481 1482 1484 1485 1486 1486 1487
1455 1455 1456 1456 1457 1457 1458 1457 1457 1458 1459 1460 1461 1462 1463 1463 1464 1465 1465 1466 1466 1467 1467 1467 1467 1468 1469 1469 1470 1471 1472 1472 1473 1474 1475 1476 1477 1477 1479 1480 1481 1481 1482 1483
1455 1455 1455 1455 1455 1455 1455 1456 1456 1456 1457 1457 1458 1460 1461 1461 1462 1463 1463 1464 1464 1464 1464 1464 1465 1465 1466 1467 1467 1468 1468 1469 1470 1471 1472 1473 1474 1475 1476 1477 1477 1478 1479 1480
1454 1455 1455 1455 1455 1455 1455 1455 1455 1456 1456 1457 1458 1459 1459 1460 1461 1461 1461 1461 1461 1461 1461 1461 1462 1462 1463 1463 1464 1464 1465 1466 1467 1468 1469 1470 1471 1472 1472 1473 1475 1475 1476 1477
1455 1455 1455 1454 1455 1455 1454 1455 1455 1455 1456 1457 1458 1458 1458 1459 1459 1459 1459 1459 1459 1459 1458 1458 1458 1459 1460 1460 1461 1461 1462 1463 1464 1465 1466 1467 1468 1469 1470 1471 1471 1472 1473 1474
1455 1455 1455 1455 1455 1455 1455 1455 1455 1455 1456 1456 1457 1457 1457 1457 1457 1457 1457 1457 1457 1457 1456 1456 1456 1457 1458 1458 1458 1459 1459 1460 1462 1463 1463 1464 1466 1467 1467 1468 1469 1470 1471 1472
1455 1455 1455 1455 1455 1455 1455 1455 1455 1456 1456 1456 1456 1456 1456 1456 1456 1456 1456 1456 1456 1455 1455 1454 1454 1455 1455 1455 1456 1457 1457 1458 1459 1460 1461 1462 1464 1465 1465 1466 1467 1468 1469 1470